EAL490 KDAB-TJSJ

Flight info

Callsign EAL490
Flight time N/A
Altitude 35000
Route ILIND DCT ZFP DCT INDEE DCT HAGIT Y290 BEANO BEANO3
Aircraft B738/M-SDGIJ1LRWY/SB1

Departure

Time 2026-04-22 23:25
Airport Daytona Beach International Airport (KDAB)

Arrival

Time N/A
Airport Luis Munoz Marin International Airport (TJSJ)
Time Latitude Longitude Altitude Speed Heading
2026-04-22 23:03 29.18311 -81.06049 34 ft 0 kts 329°
2026-04-22 23:13 29.18303 -81.06044 34 ft 2 kts 329°
2026-04-22 23:13 29.18290 -81.06035 34 ft 2 kts 328°
2026-04-22 23:13 29.18277 -81.06029 34 ft 2 kts 354°
2026-04-22 23:14 29.18267 -81.06029 34 ft 2 kts
2026-04-22 23:14 29.18257 -81.06032 34 ft 2 kts 24°
2026-04-22 23:14 29.18241 -81.06045 34 ft 2 kts 54°
2026-04-22 23:14 29.18235 -81.06058 34 ft 2 kts 74°
2026-04-22 23:15 29.18233 -81.06074 34 ft 1 kts 96°
2026-04-22 23:15 29.18234 -81.06081 34 ft 1 kts 102°
2026-04-22 23:15 29.18235 -81.06084 34 ft 0 kts 101°
2026-04-22 23:19 29.18226 -81.06034 34 ft 24 kts 98°
2026-04-22 23:19 29.18157 -81.05958 34 ft 13 kts 243°
2026-04-22 23:20 29.18100 -81.06061 34 ft 26 kts 241°
2026-04-22 23:20 29.17988 -81.06347 34 ft 47 kts 245°
2026-04-22 23:20 29.17830 -81.06727 34 ft 59 kts 245°
2026-04-22 23:20 29.17743 -81.06952 33 ft 60 kts 246°
2026-04-22 23:21 29.17584 -81.07334 32 ft 42 kts 247°
2026-04-22 23:21 29.17436 -81.07645 31 ft 30 kts 219°
2026-04-22 23:22 29.17397 -81.07661 31 ft 0 kts 165°
2026-04-22 23:24 29.17373 -81.07653 31 ft 20 kts 160°
2026-04-22 23:24 29.17403 -81.07412 31 ft 65 kts 72°
2026-04-22 23:24 29.17704 -81.06654 34 ft 139 kts 65°
2026-04-22 23:25 29.18289 -81.05509 114 ft 190 kts 54°
2026-04-22 23:25 29.19423 -81.04795 655 ft 207 kts